TIANQI 18

导读 | 豆包AI

TIANQI 18即天启18星,是中国天启星座组网卫星之一,由北京国电高科科技有限公司主导建设。该卫星于2025年5月19日由谷神星一号海射型遥五运载火箭在山东日照海域发射升空,属于我国首个低轨物联网通信星座天启星座,与天启16、17、20星共同完成一期37星全球组网,可提供低成本窄带物联网通信服务,助力多领域数字化应用。

基本信息
目录编号:
64060
目录名称:
TIANQI 18
国际标识:
2025-105C
轨道中心:
EARTH
卫星名称:
TIANQI 18
卫星全名:
TIANQI 18
卫星状态:
在轨 (已飞行299 天)
发射日期:
2025-05-19 UTC
国别 :
中国 (CN)
星等 :
--
轨道信息
数据来源 国际轨道数据
星历时间: 2026-03-13T19:53:48+0800
13小时前
查看轨道信息
半长轴: 7275.055km
偏心率: 0.0011905
轨道倾角: 44.984°
近地点辐角 293.936°
升交点赤经 87.934°
平近点角 66.023°
近地点: 888.257km
远地点: 905.579km
周期: 102.923分钟
每日圈数: 13.990988
详细信息
使用方式:
暂无
2D轨道图
3D轨道图
轨道高度分析图
轨道倾角分析图
轨道综合分析图
查看轨道综合分析图